Time,TemperatureF,DewpointF,PressureIn,WindDirection,WindDirectionDegrees,WindSpeedMPH,WindSpeedGustMPH,Humidity,HourlyPrecipIn,Conditions,Clouds,dailyrainin,SolarRadiationWatts/m^2,SoftwareType,DateUTC
2013-06-01 00:22:00,45.0,30.0,-100.00,SW,223,0.0,4.0,55,0.00,,,0.00,0.000000,,2013-06-01 06:22:00,
2013-06-01 00:32:00,45.0,30.0,-100.00,SW,223,0.0,4.0,55,0.00,,,0.00,0.000000,,2013-06-01 06:32:00,
2013-06-01 00:42:00,45.0,30.0,-100.00,SW,223,0.0,4.0,55,0.00,,,0.00,0.000000,,2013-06-01 06:42:00,
2013-06-01 00:52:00,45.0,30.0,-100.00,SW,223,0.0,4.0,55,0.00,,,0.00,0.000000,,2013-06-01 06:52:00,
2013-06-01 01:21:00,42.0,30.0,-100.00,East,95,1.0,3.0,61,0.00,,,0.00,0.000000,,2013-06-01 07:21:00,
2013-06-01 01:31:00,42.0,30.0,-100.00,East,95,1.0,3.0,61,0.00,,,0.00,0.000000,,2013-06-01 07:31:00,
2013-06-01 01:42:00,42.0,30.0,-100.00,East,95,1.0,3.0,61,0.00,,,0.00,0.000000,,2013-06-01 07:42:00,
2013-06-01 01:52:00,42.0,30.0,-100.00,East,95,1.0,3.0,61,0.00,,,0.00,0.000000,,2013-06-01 07:52:00,
2013-06-01 02:21:00,43.0,28.0,-100.00,ENE,61,0.0,3.0,56,0.00,,,0.00,0.000000,,2013-06-01 08:21:00,
2013-06-01 02:32:00,43.0,28.0,-100.00,ENE,61,0.0,3.0,56,0.00,,,0.00,0.000000,,2013-06-01 08:32:00,
2013-06-01 02:42:00,43.0,28.0,-100.00,ENE,61,0.0,3.0,56,0.00,,,0.00,0.000000,,2013-06-01 08:42:00,
2013-06-01 02:52:00,43.0,28.0,-100.00,ENE,61,0.0,3.0,56,0.00,,,0.00,0.000000,,2013-06-01 08:52:00,
2013-06-01 03:21:00,41.0,29.0,-100.00,ESE,111,1.0,4.0,63,0.00,,,0.00,0.000000,,2013-06-01 09:21:00,
2013-06-01 03:33:00,41.0,29.0,-100.00,ESE,111,1.0,4.0,63,0.00,,,0.00,0.000000,,2013-06-01 09:33:00,
2013-06-01 03:42:00,41.0,29.0,-100.00,ESE,111,1.0,4.0,63,0.00,,,0.00,0.000000,,2013-06-01 09:42:00,
2013-06-01 03:53:00,41.0,29.0,-100.00,ESE,111,1.0,4.0,63,0.00,,,0.00,0.000000,,2013-06-01 09:53:00,
2013-06-01 04:22:00,41.0,27.0,-100.00,NE,39,0.0,3.0,56,0.00,,,0.00,0.000000,,2013-06-01 10:22:00,
2013-06-01 04:32:00,41.0,27.0,-100.00,NE,39,0.0,3.0,56,0.00,,,0.00,0.000000,,2013-06-01 10:32:00,
2013-06-01 04:42:00,41.0,27.0,-100.00,NE,39,0.0,3.0,56,0.00,,,0.00,0.000000,,2013-06-01 10:42:00,
2013-06-01 04:52:00,41.0,27.0,-100.00,NE,39,0.0,3.0,56,0.00,,,0.00,0.000000,,2013-06-01 10:52:00,
2013-06-01 05:21:00,39.0,27.0,-100.00,East,95,0.0,3.0,63,0.00,,,0.00,0.000000,,2013-06-01 11:21:00,
2013-06-01 05:32:00,39.0,27.0,-100.00,East,95,0.0,3.0,63,0.00,,,0.00,0.000000,,2013-06-01 11:32:00,
2013-06-01 05:42:00,39.0,27.0,-100.00,East,95,0.0,3.0,63,0.00,,,0.00,0.000000,,2013-06-01 11:42:00,
2013-06-01 05:52:00,39.0,27.0,-100.00,East,95,0.0,3.0,63,0.00,,,0.00,0.000000,,2013-06-01 11:52:00,
2013-06-01 06:21:00,39.0,27.0,-100.00,ESE,105,0.0,2.0,61,0.00,,,0.00,0.000000,,2013-06-01 12:21:00,
2013-06-01 06:32:00,39.0,27.0,-100.00,ESE,105,0.0,2.0,61,0.00,,,0.00,0.000000,,2013-06-01 12:32:00,
2013-06-01 06:41:00,39.0,27.0,-100.00,ESE,105,0.0,2.0,61,0.00,,,0.00,0.000000,,2013-06-01 12:41:00,
2013-06-01 06:52:00,39.0,27.0,-100.00,ESE,105,0.0,2.0,61,0.00,,,0.00,0.000000,,2013-06-01 12:52:00,
2013-06-01 07:22:00,40.0,28.0,-100.00,East,101,1.0,2.0,62,0.00,,,0.00,10.000000,,2013-06-01 13:22:00,
2013-06-01 07:32:00,40.0,28.0,-100.00,East,101,1.0,2.0,62,0.00,,,0.00,10.000000,,2013-06-01 13:32:00,
2013-06-01 07:42:00,40.0,28.0,-100.00,East,101,1.0,2.0,62,0.00,,,0.00,10.000000,,2013-06-01 13:42:00,
2013-06-01 07:52:00,40.0,28.0,-100.00,East,101,1.0,2.0,62,0.00,,,0.00,10.000000,,2013-06-01 13:52:00,
2013-06-01 08:42:00,46.0,32.0,-100.00,East,93,2.0,3.0,58,0.00,,,0.00,160.000000,,2013-06-01 14:42:00,
2013-06-01 08:52:00,46.0,32.0,-100.00,East,93,2.0,3.0,58,0.00,,,0.00,160.000000,,2013-06-01 14:52:00,
2013-06-01 09:21:00,48.0,34.0,-100.00,SE,134,0.0,3.0,57,0.00,,,0.00,127.000000,,2013-06-01 15:21:00,
2013-06-01 09:33:00,48.0,34.0,-100.00,SE,134,0.0,3.0,57,0.00,,,0.00,127.000000,,2013-06-01 15:33:00,
2013-06-01 09:43:00,48.0,34.0,-100.00,SE,134,0.0,3.0,57,0.00,,,0.00,127.000000,,2013-06-01 15:43:00,
2013-06-01 09:53:00,48.0,34.0,-100.00,SE,134,0.0,3.0,57,0.00,,,0.00,127.000000,,2013-06-01 15:53:00,
2013-06-01 10:42:00,57.0,35.0,-100.00,SSE,149,1.0,5.0,43,0.00,,,0.00,538.000000,,2013-06-01 16:42:00,
2013-06-01 10:52:00,57.0,35.0,-100.00,SSE,149,1.0,5.0,43,0.00,,,0.00,538.000000,,2013-06-01 16:52:00,
2013-06-01 11:22:00,59.0,34.0,-100.00,WSW,257,2.0,7.0,39,0.00,,,0.00,693.000000,,2013-06-01 17:22:00,
2013-06-01 11:32:00,59.0,34.0,-100.00,WSW,257,2.0,7.0,39,0.00,,,0.00,693.000000,,2013-06-01 17:32:00,
2013-06-01 11:42:00,59.0,34.0,-100.00,WSW,257,2.0,7.0,39,0.00,,,0.00,693.000000,,2013-06-01 17:42:00,
2013-06-01 11:52:00,59.0,34.0,-100.00,WSW,257,2.0,7.0,39,0.00,,,0.00,693.000000,,2013-06-01 17:52:00,
2013-06-01 12:21:00,61.0,34.0,-100.00,West,272,2.0,6.0,36,0.00,,,0.00,824.000000,,2013-06-01 18:21:00,
2013-06-01 12:32:00,61.0,34.0,-100.00,West,272,2.0,6.0,36,0.00,,,0.00,824.000000,,2013-06-01 18:32:00,
2013-06-01 12:41:00,61.0,34.0,-100.00,West,272,2.0,6.0,36,0.00,,,0.00,824.000000,,2013-06-01 18:41:00,
2013-06-01 12:51:00,61.0,34.0,-100.00,West,272,2.0,6.0,36,0.00,,,0.00,824.000000,,2013-06-01 18:51:00,
2013-06-01 13:21:00,63.0,37.0,-100.00,WSW,251,2.0,10.0,38,0.00,,,0.00,906.000000,,2013-06-01 19:21:00,
2013-06-01 13:32:00,63.0,37.0,-100.00,WSW,251,2.0,10.0,38,0.00,,,0.00,906.000000,,2013-06-01 19:32:00,
2013-06-01 13:41:00,63.0,37.0,-100.00,WSW,251,2.0,10.0,38,0.00,,,0.00,906.000000,,2013-06-01 19:41:00,
2013-06-01 13:52:00,63.0,37.0,-100.00,WSW,251,2.0,10.0,38,0.00,,,0.00,906.000000,,2013-06-01 19:52:00,
2013-06-01 14:12:00,64.0,36.0,-100.00,West,279,4.0,12.0,35,0.00,,,0.00,943.000000,,2013-06-01 20:12:00,
2013-06-01 14:21:00,64.0,36.0,-100.00,West,279,4.0,12.0,35,0.00,,,0.00,943.000000,,2013-06-01 20:21:00,
2013-06-01 14:32:00,64.0,36.0,-100.00,West,279,4.0,12.0,35,0.00,,,0.00,943.000000,,2013-06-01 20:32:00,
2013-06-01 14:41:00,64.0,36.0,-100.00,West,279,4.0,12.0,35,0.00,,,0.00,943.000000,,2013-06-01 20:41:00,
2013-06-01 14:51:00,64.0,36.0,-100.00,West,279,4.0,12.0,35,0.00,,,0.00,943.000000,,2013-06-01 20:51:00,
2013-06-01 15:21:00,65.0,37.0,-100.00,West,278,3.0,10.0,36,0.00,,,0.00,901.000000,,2013-06-01 21:21:00,
2013-06-01 15:33:00,65.0,37.0,-100.00,West,278,3.0,10.0,36,0.00,,,0.00,901.000000,,2013-06-01 21:33:00,
2013-06-01 15:42:00,65.0,37.0,-100.00,West,278,3.0,10.0,36,0.00,,,0.00,901.000000,,2013-06-01 21:42:00,
2013-06-01 15:53:00,65.0,37.0,-100.00,West,278,3.0,10.0,36,0.00,,,0.00,901.000000,,2013-06-01 21:53:00,
2013-06-01 16:23:00,66.0,38.0,-100.00,West,270,4.0,12.0,35,0.00,,,0.00,834.000000,,2013-06-01 22:23:00,
2013-06-01 16:33:00,66.0,38.0,-100.00,West,270,4.0,12.0,35,0.00,,,0.00,834.000000,,2013-06-01 22:33:00,
2013-06-01 16:42:00,66.0,38.0,-100.00,West,270,4.0,12.0,35,0.00,,,0.00,834.000000,,2013-06-01 22:42:00,
2013-06-01 16:53:00,66.0,38.0,-100.00,West,270,4.0,12.0,35,0.00,,,0.00,834.000000,,2013-06-01 22:53:00,
2013-06-01 17:21:00,67.0,38.0,-100.00,WNW,298,4.0,13.0,35,0.00,,,0.00,699.000000,,2013-06-01 23:21:00,
2013-06-01 17:32:00,67.0,38.0,-100.00,WNW,298,4.0,13.0,35,0.00,,,0.00,699.000000,,2013-06-01 23:32:00,
2013-06-01 17:42:00,67.0,38.0,-100.00,WNW,298,4.0,13.0,35,0.00,,,0.00,699.000000,,2013-06-01 23:42:00,
2013-06-01 17:52:00,67.0,38.0,-100.00,WNW,298,4.0,13.0,35,0.00,,,0.00,699.000000,,2013-06-01 23:52:00,
2013-06-01 18:21:00,67.0,38.0,-100.00,West,262,3.0,10.0,34,0.00,,,-99.99,558.000000,,2013-06-02 00:21:00,
2013-06-01 18:32:00,67.0,38.0,-100.00,West,262,3.0,10.0,34,0.00,,,-99.99,558.000000,,2013-06-02 00:32:00,
2013-06-01 18:41:00,67.0,38.0,-100.00,West,262,3.0,10.0,34,0.00,,,-99.99,558.000000,,2013-06-02 00:41:00,
2013-06-01 18:51:00,67.0,38.0,-100.00,West,262,3.0,10.0,34,0.00,,,-99.99,558.000000,,2013-06-02 00:51:00,
2013-06-01 19:21:00,63.0,36.0,-100.00,West,270,2.0,8.0,36,0.00,,,0.00,318.000000,,2013-06-02 01:21:00,
2013-06-01 19:32:00,63.0,36.0,-100.00,West,270,2.0,8.0,36,0.00,,,0.00,318.000000,,2013-06-02 01:32:00,
2013-06-01 19:41:00,63.0,36.0,-100.00,West,270,2.0,8.0,36,0.00,,,0.00,318.000000,,2013-06-02 01:41:00,
2013-06-01 19:52:00,63.0,36.0,-100.00,West,270,2.0,8.0,36,0.00,,,0.00,318.000000,,2013-06-02 01:52:00,
2013-06-01 20:21:00,63.0,37.0,-100.00,WNW,285,1.0,4.0,38,0.00,,,0.00,161.000000,,2013-06-02 02:21:00,
2013-06-01 20:32:00,63.0,37.0,-100.00,WNW,285,1.0,4.0,38,0.00,,,0.00,161.000000,,2013-06-02 02:32:00,
2013-06-01 20:41:00,63.0,37.0,-100.00,WNW,285,1.0,4.0,38,0.00,,,0.00,161.000000,,2013-06-02 02:41:00,
2013-06-01 20:51:00,63.0,37.0,-100.00,WNW,285,1.0,4.0,38,0.00,,,0.00,161.000000,,2013-06-02 02:51:00,
2013-06-01 21:21:00,60.0,35.0,-100.00,WNW,299,0.0,4.0,39,0.00,,,0.00,74.000000,,2013-06-02 03:21:00,
2013-06-01 21:33:00,60.0,35.0,-100.00,WNW,299,0.0,4.0,39,0.00,,,0.00,74.000000,,2013-06-02 03:33:00,
2013-06-01 21:43:00,60.0,35.0,-100.00,WNW,299,0.0,4.0,39,0.00,,,0.00,74.000000,,2013-06-02 03:43:00,
2013-06-01 21:52:00,60.0,35.0,-100.00,WNW,299,0.0,4.0,39,0.00,,,0.00,74.000000,,2013-06-02 03:52:00,
2013-06-01 22:23:00,56.0,36.0,-100.00,East,94,1.0,2.0,46,0.00,,,0.00,4.000000,,2013-06-02 04:23:00,
2013-06-01 22:33:00,56.0,36.0,-100.00,East,94,1.0,2.0,46,0.00,,,0.00,4.000000,,2013-06-02 04:33:00,
2013-06-01 22:42:00,56.0,36.0,-100.00,East,94,1.0,2.0,46,0.00,,,0.00,4.000000,,2013-06-02 04:42:00,
2013-06-01 22:52:00,56.0,36.0,-100.00,East,94,1.0,2.0,46,0.00,,,0.00,4.000000,,2013-06-02 04:52:00,
2013-06-01 23:22:00,54.0,34.0,-100.00,ENE,68,1.0,2.0,46,0.00,,,0.00,0.000000,,2013-06-02 05:22:00,
2013-06-01 23:32:00,54.0,34.0,-100.00,ENE,68,1.0,2.0,46,0.00,,,0.00,0.000000,,2013-06-02 05:32:00,
2013-06-01 23:42:00,54.0,34.0,-100.00,ENE,68,1.0,2.0,46,0.00,,,0.00,0.000000,,2013-06-02 05:42:00,
2013-06-01 23:52:00,54.0,34.0,-100.00,ENE,68,1.0,2.0,46,0.00,,,0.00,0.000000,,2013-06-02 05:52:00,